Flag for Japan Weather past 2 weeks in Okayama, Japan

Now
75 °F

Mild.


Feels Like: 76 °F
Forecast: 63 / 84 °F
Wind: 3 mph from Northeast

Location: Takamatsu

Current Time: Aug 31, 2014 at 5:26:55 AM

Latest Report: Aug 31, 2014 at 4:00 AM


Visibility: N/A

Pressure: 29.87 "Hg

Humidity: 74%

Dew point: 66 °F

Location of OkayamaLocation

Historic Weather in Okayama — Graph

°F

Okayama temperature yesterday

Maximum temperature yesterday: 86 °F (at 3:00 PM)
Minimum temperature yesterday: 69 °F (at 6:00 AM)
Average temperature yesterday: 76 °F

Past Weeks' High & Low Weather Summary

 TemperatureHumidityPressure
High94 °F (Aug 21, 1:00 PM)96% (Aug 16, 5:00 AM)30.01 "Hg (Aug 16, 5:00 AM)
Low69 °F (Aug 30, 6:00 AM)46% (Aug 30, 4:00 PM)29.72 "Hg (Aug 16, 4:00 AM)
Average81 °F77%29.89 "Hg
* Reported Aug 16 4:00 AM — Aug 31 4:00 AM, Okayama, Weather by CustomWeather, © 2014

Note: Actual official high and low records may vary slightly from our data, if they occured in-between our weather recording intervals... More about our weather records

Advertising

Okayama weather history for previous 24 hours

 ConditionsComfort  
Time TempWeatherWind HumidityBarometerVisibility
4:00 AM
Aug 31
75 °FMild.3 mph74%29.87 "HgN/A
3:00 AM75 °FOvercast.3 mph73%29.88 "Hg9 mi
2:00 AM75 °FMild.5 mph75%29.88 "HgN/A
1:00 AM76 °FMild.5 mph72%29.89 "HgN/A
12:00 AM75 °FMild.3 mph76%29.90 "HgN/A
11:00 PM
Aug 30
75 °FMild.5 mph78%29.89 "HgN/A
10:00 PM76 °FMild.2 mph74%29.89 "HgN/A
9:00 PM77 °FPassing clouds.3 mph69%29.89 "Hg12 mi
8:00 PM78 °FWarm.6 mph69%29.87 "HgN/A
7:00 PM80 °FWarm.6 mph56%29.86 "HgN/A
6:00 PM82 °FOvercast.6 mph50%29.86 "Hg12 mi
5:00 PM83 °FWarm.7 mph48%29.85 "HgN/A
4:00 PM84 °FWarm.7 mph46%29.86 "HgN/A
3:00 PM86 °FPartly sunny.8 mph47%29.87 "Hg16 mi
2:00 PM85 °FWarm.6 mph50%29.88 "HgN/A
1:00 PM82 °FWarm.6 mph54%29.90 "HgN/A
12:00 PM82 °FPartly sunny.5 mph54%29.92 "Hg12 mi
11:00 AM80 °FWarm.6 mph68%29.93 "HgN/A
10:00 AM76 °FMild.1 mph78%29.94 "HgN/A
9:00 AM73 °FOvercast.2 mph82%29.94 "Hg9 mi
8:00 AM72 °FMild.3 mph87%29.93 "HgN/A
7:00 AM70 °FMild.3 mph91%29.94 "HgN/A
6:00 AM69 °FSprinkles. Overcast.3 mph91%29.94 "Hg9 mi
Weather by CustomWeather, © 2014

See weather overviewHow to use our weather pages